PROFILE

 METAR AND TAF INFORMATION
ADDS - METARS form results

(0209 UTC 20 February 2020)
http://aviationweather.gov/metar/data/
 
LCLK 200200Z 27003KT 250V310 CAVOK 12/05 Q1015 NOSIG
LCLK 200130Z VRB02KT CAVOK 11/05 Q1015 NOSIG
TAF LCLK 192330Z 2000/2024 30008KT 9999 FEW025 BECMG 2007/2010 22018KT PROB30 TEMPO 2020/2024 5000 SHRA 

 AIRPORT MAP

 RUNWAY INFORMATION
Runway 04 Runway length 9776 ft Runway width 148 ft
Runway elevation 11 ft Runway displaced threshold 0 ft Runway heading 45
Runway 22 Runway length 9776 ft Runway width 148 ft
Runway elevation 6 ft Runway displaced threshold 575 ft Runway heading 225

 AIRPORT FREQUENCIES
Type APP Name APP Frequency 121.2 MHZ
Type ATIS Name ATIS Frequency 126.55 MHZ
Type TWR Name TWR Frequency 119.4 MHZ

 AIRPORT NEAR NAVIGATION AIDS
Type VOR-DME Name Larnaca Frequency 112800 KHZ
Type NDB Name Larnaca Frequency 432 KHZ